Hourly Data Report for May 09, 2012

All times are specified in Local Standard Time (LST). Add 1 hour to adjust for Daylight Saving Time where and when it is observed.

PENTICTON A
BRITISH COLUMBIA

49°27'45.000" N
119°36'08.000" W
344.40 m
1126146
71889
YYF

Related Data

No related data is available for this station

Download Data

Hourly Data (May 2012)
Hourly Data Report for May 9, 2012
Temp Definition
°C
Dew Point Temp Definition
°C
Rel Hum Definition
%
Wind Dir Definition
10's deg

Wind Spd Definition
km/h
Visibility Definition
km
Stn Press Definition
kPa
Hmdx Definition


Wind Chill Definition


Weather Definition


TIME
00:00 Legend Double Dagger 13.9 3.1 48 0 10 10.0 97.29     LegendNANA
01:00 Legend Double Dagger 12.6 3.3 53 34 10 10.0 97.28     Mostly Cloudy
02:00 Legend Double Dagger 12.1 3.1 54 36 15 0.0 97.29     LegendNANA
03:00 Legend Double Dagger 11.3 3.1 57 33 12 10.0 97.34     LegendNANA
04:00 Legend Double Dagger 10.7 2.8 58 1 4 10.0 97.39     Mostly Cloudy
05:00 Legend Double Dagger 8.8 4.1 72   0 10.0 97.42     LegendNANA
06:00 Legend Double Dagger 10.4 1.5 54 34 5 10.0 97.51     LegendNANA
07:00 Legend Double Dagger 11.4 -2.7 37 2 25 10.0 97.60     Mostly Cloudy
08:00 Legend Double Dagger 11.8 -3.5 34 3 27 10.0 97.64     LegendNANA
09:00 Legend Double Dagger 12.7 -2.7 34 3 21 10.0 97.61     LegendNANA
10:00 Legend Double Dagger 13.8 -4.4 28 36 17 10.0 97.59     Mainly Clear
11:00 Legend Double Dagger 15.3 -1.7 31 2 19 10.0 97.56     LegendNANA
12:00 Legend Double Dagger 15.7 -7.2 20 29 14 10.0 97.55     LegendNANA
13:00 Legend Double Dagger 15.6 -10.1 16 28 29 10.0 97.59     Mostly Cloudy
14:00 Legend Double Dagger 14.7 -8.0 20 26 15 10.0 97.63     LegendNANA
15:00 Legend Double Dagger 15.0 -10.6 16 26 26 10.0 97.64     LegendNANA
16:00 Legend Double Dagger 14.8 -5.5 24 1 17 10.0 97.63     Mostly Cloudy
17:00 Legend Double Dagger 13.8 -10.1 18 31 19 10.0 97.67     LegendNANA
18:00 Legend Double Dagger 12.2 -10.8 19 28 24 10.0 97.72     LegendNANA
19:00 Legend Double Dagger 10.4 -8.3 26 31 18 10.0 97.80     Mainly Clear
20:00 Legend Double Dagger 8.6 -8.5 29 35 6 10.0 97.86     LegendNANA
21:00 Legend Double Dagger 8.8 -7.8 30 35 17 10.0 97.95     LegendNANA
22:00 Legend Double Dagger 6.8 -5.5 41 2 9 10.0 97.97     Mainly Clear
23:00 Legend Double Dagger 6.0 -5.3 44 35 14 10.0 98.03     LegendNANA

Notes on Data Quality.

Legend

  • E = Estimated
  • M = Missing
  • NA = Not Available
  • ‡ = Partner data that is not subject to review by the National Climate Archives
Date modified: